[[{"header":{"parameterUnit":"m.s-1","parameterCategory":2,"la1":30.2991,"la2":30.254,"lo1":-89.0895,"lo2":-89.0444,"dy":0.0017,"dx":0.0017,"nx":28,"ny":28,"refTime":"2023-08-27T09:00:00:Z","depth":"0","parameterNumber":2,"parameterNumberName":"U-component_of_CURRENTS"},"data":[0,0,0,0,0,0,0,0,0,0,0,0,0,0,0,0,0,0,0,0,0,0,0,0,0,0,0,0,0,0,0,0,0,0,0,0,0,0,0,0,0,0,0,0,0,0,0,0,0,0,0,0,0,0,0,0,0,0,-0.2295,-0.2296,0,-0.2384,-0.2385,-0.2386,-0.2437,-0.2437,-0.2437,-0.2437,-0.2512,-0.2513,-0.2515,0,0,0,0,0,0,0,0,0,0,0,0,0,-0.2206,-0.2207,-0.2295,-0.2296,-0.2297,-0.2384,-0.2385,-0.2386,-0.2437,-0.2437,-0.2437,-0.2437,-0.2511,-0.2513,-0.2515,0,0,0,0,0,0,0,0,0,0,0,0,0,-0.2264,-0.2207,-0.2295,-0.2333,-0.2337,-0.2384,-0.2385,-0.2387,-0.2437,-0.2437,-0.2437,-0.2437,-0.251,-0.2513,-0.2516,-0.2527,0,0,-0.2524,-0.2525,0,0,0,0,0,0,0,0,-0.2261,-0.2268,-0.2326,-0.233,-0.2335,-0.2399,-0.2381,-0.2433,-0.2437,-0.2399,-0.2437,-0.2438,-0.2472,-0.2478,-0.2495,-0.2531,-0.2534,-0.2524,-0.2526,-0.2527,-0.2528,0,0,0,0,0,0,0,-0.2257,-0.2264,-0.233,-0.2327,-0.2333,-0.2358,-0.2366,-0.2391,-0.2433,-0.2402,-0.2406,-0.2416,-0.2475,-0.2492,-0.2497,-0.2535,-0.2524,-0.2526,-0.2528,-0.2529,-0.2575,-0.2574,0,0,0,0,0,0,-0.2244,-0.226,-0.2328,-0.2333,-0.2298,-0.2359,-0.2368,-0.2379,-0.2433,-0.2442,-0.2415,-0.2418,-0.2487,-0.2494,-0.25,-0.2509,-0.2527,-0.2529,-0.2531,-0.2575,-0.2574,-0.2574,0,0,0,0,0,0,-0.2241,-0.2249,-0.2324,-0.2299,-0.231,-0.236,-0.2371,-0.238,-0.2398,-0.2443,-0.2452,-0.2424,-0.2488,-0.2496,-0.2527,-0.2513,-0.2531,-0.2533,-0.2575,-0.2575,-0.2574,-0.2533,0,0,0,0,0,0,-0.2238,-0.2247,-0.2245,-0.2298,-0.2311,-0.2351,-0.2371,-0.2382,-0.2403,-0.2407,-0.2453,-0.2461,-0.2489,-0.2523,-0.2529,-0.2517,-0.2535,-0.2576,-0.2575,-0.2574,-0.2535,-0.2531,-0.2527,0,0,0,0,0,-0.2235,-0.2238,-0.2245,-0.2253,-0.2308,-0.2351,-0.236,-0.2397,-0.2403,-0.2413,-0.2445,-0.2459,-0.2522,-0.2525,-0.2533,-0.2521,-0.2576,-0.2575,-0.2574,-0.2536,-0.2532,-0.2528,0,0,0,0,0,0,-0.2203,-0.2245,-0.2253,-0.2269,-0.2304,-0.2359,-0.2371,-0.2392,-0.2425,-0.2426,-0.2465,-0.2475,-0.2491,-0.2513,-0.2516,-0.253,-0.2547,-0.2547,-0.2515,-0.2511,-0.2507,-0.2514,-0.2538,0,0,0,0,0,-0.2191,-0.2202,-0.2247,-0.2259,-0.2274,-0.2318,-0.2337,-0.2362,-0.24,-0.2415,-0.2446,-0.2473,-0.2493,-0.2509,-0.2532,-0.2548,-0.2549,-0.2541,-0.2537,-0.2534,-0.2544,-0.2533,-0.253,-0.2571,-0.2571,-0.2571,0,0,-0.2182,-0.2206,-0.2212,-0.2252,-0.2281,-0.2314,-0.2331,-0.236,-0.2384,-0.2417,-0.245,-0.2463,-0.2494,-0.2511,-0.2519,-0.2529,-0.2518,-0.2533,-0.253,-0.2543,-0.2532,-0.2528,-0.2524,-0.257,-0.257,-0.257,0,0,-0.2184,-0.219,-0.2207,-0.2235,-0.2275,-0.2302,-0.2307,-0.2356,-0.2371,-0.2403,-0.2424,-0.243,-0.2474,-0.2488,-0.2501,-0.2491,-0.2497,-0.2491,-0.2484,-0.2472,-0.2468,-0.2465,-0.2437,-0.2433,-0.2491,-0.2491,-0.2491,0,-0.2173,-0.22,-0.2218,-0.2249,-0.2272,-0.2296,-0.2326,-0.2347,-0.2397,-0.2407,-0.2409,-0.2448,-0.2463,-0.248,-0.2475,-0.2482,-0.2475,-0.2497,-0.2466,-0.2464,-0.2462,-0.2434,-0.2429,-0.2489,-0.249,-0.249,-0.249,0,-0.2197,-0.2218,-0.223,-0.2273,-0.2298,-0.2323,-0.2357,-0.2372,-0.2382,-0.2403,-0.2413,-0.2427,-0.2453,-0.2443,-0.246,-0.2449,-0.2447,-0.2459,-0.2476,-0.2455,-0.2427,-0.2422,-0.2486,-0.2487,-0.2488,-0.2488,0,0,-0.2167,-0.2236,-0.2235,-0.226,-0.231,-0.2332,-0.2361,-0.2394,-0.2405,-0.242,-0.2431,-0.244,-0.2436,-0.245,-0.2452,-0.2437,-0.2396,-0.2442,-0.2442,-0.2411,-0.2358,-0.2268,-0.2254,-0.2403,-0.2403,-0.2403,-0.2335,0,-0.2178,-0.2233,-0.2265,-0.2307,-0.2336,-0.2366,-0.2393,-0.2418,-0.2429,-0.244,-0.2432,-0.2442,-0.2442,-0.2439,-0.2425,-0.2418,-0.2387,-0.2413,-0.2387,-0.2386,-0.2306,-0.2247,-0.2132,-0.2055,-0.2331,-0.2331,-0.233,0,-0.2183,-0.222,-0.2268,-0.2325,-0.2338,-0.2364,-0.2394,-0.2421,-0.2441,-0.2449,-0.2452,-0.2453,-0.2444,-0.2432,-0.2403,-0.2421,-0.2385,-0.2364,-0.2361,-0.2295,-0.2288,-0.2127,-0.2037,-0.2028,-0.2323,-0.2324,-0.2324,0,-0.214,-0.2213,-0.2246,-0.2268,-0.2339,-0.2355,-0.2383,-0.2415,-0.2433,-0.2445,-0.2454,-0.2451,-0.2445,-0.2414,-0.2372,-0.2392,-0.2317,-0.2342,-0.2218,-0.2212,-0.2117,-0.2102,-0.2015,-0.2294,-0.2294,-0.2294,-0.2294,0,-0.213,-0.2149,-0.2227,-0.2242,-0.2268,-0.2328,-0.2347,-0.2374,-0.2412,-0.2414,-0.2447,-0.2434,-0.244,-0.2403,-0.2363,-0.2265,-0.2309,-0.2201,-0.2183,-0.2096,-0.208,-0.2074,-0.2117,-0.2291,-0.2292,-0.2292,-0.2293,0,-0.2062,-0.2123,-0.2157,-0.223,-0.2248,-0.2257,-0.2322,-0.2334,-0.2387,-0.2389,-0.2393,-0.2425,-0.2368,-0.2344,-0.2282,-0.2243,-0.2119,-0.2111,-0.1996,-0.1965,-0.185,-0.1895,-0.1824,-0.1774,-0.1976,-0.1973,-0.1971,0,-0.2029,-0.2044,-0.2117,-0.2125,-0.2152,-0.2187,-0.2206,-0.2292,-0.231,-0.2358,-0.2346,-0.2324,-0.2248,-0.214,-0.2059,-0.1952,-0.1983,-0.1809,-0.1821,-0.1804,-0.1844,-0.1895,-0.1864,-0.1675,-0.167,-0.1667,-0.1664,0,-0.1949,-0.1976,-0.2006,-0.2019,-0.2042,-0.2064,-0.2104,-0.2114,-0.2194,-0.2208,-0.2172,-0.2117,-0.2037,-0.1876,-0.1773,-0.1704,-0.177,-0.1729,-0.1743,-0.1617,-0.1637,-0.1592,-0.1763,-0.1631,-0.1634,-0.1636,-0.1638,-0.164,-0.1865,-0.1864,-0.1891,-0.1876,-0.1895,-0.1864,-0.1792,-0.1837,-0.1816,-0.1706,-0.1894,-0.1704,-0.1736,-0.156,-0.1509,-0.1413,-0.1503,-0.1376,-0.1436,-0.1491,-0.1428,-0.1512,-0.1345,-0.1347,-0.1348,-0.1349,-0.135,0,-0.1748,-0.1739,-0.1734,-0.1681,-0.1594,-0.1673,-0.1647,-0.1529,-0.1373,-0.132,-0.1254,-0.1237,-0.1181,-0.1207,-0.1214,-0.1153,-0.1154,-0.1138,-0.1196,-0.118,-0.1259,-0.1229,-0.0988,-0.0988,-0.0988,-0.0988,-0.0988,-0.0988,-0.1687,-0.1633,-0.1613,-0.1377,-0.1315,-0.1154,-0.1079,-0.093,-0.082,-0.0588,-0.0467,-0.0463,-0.0773,-0.1105,-0.1131,-0.1074,-0.1087,-0.1026,-0.1095,-0.1174,-0.1202,-0.1229,-0.1208,-0.0967,-0.0967,-0.0945,-0.0945,-0.0945]},{"header":{"parameterUnit":"m.s-1","parameterCategory":2,"la1":30.2991,"la2":30.254,"lo1":-89.0895,"lo2":-89.0444,"dy":0.0017,"dx":0.0017,"nx":28,"ny":28,"refTime":"2023-08-27T09:00:00:Z","depth":"0","parameterNumber":3,"parameterNumberName":"V-component_of_CURRENTS"},"data":[0,0,0,0,0,0,0,0,0,0,0,0,0,0,0,0,0,0,0,0,0,0,0,0,0,0,0,0,0,0,0,0,0,0,0,0,0,0,0,0,0,0,0,0,0,0,0,0,0,0,0,0,0,0,0,0,0,0,-0.0196,-0.0195,0,-0.0082,-0.0081,-0.0079,0.0021,0.0022,0.0023,0.0024,0.021,0.0214,0.0218,0,0,0,0,0,0,0,0,0,0,0,0,0,-0.0264,-0.0263,-0.0196,-0.0195,-0.0194,-0.0082,-0.0081,-0.0079,0.0021,0.0022,0.0023,0.0024,0.0208,0.0213,0.0218,0,0,0,0,0,0,0,0,0,0,0,0,0,-0.0199,-0.0263,-0.0196,-0.0132,-0.0125,-0.0083,-0.008,-0.0078,0.002,0.0022,0.0023,0.0025,0.0207,0.0213,0.0219,0.0228,0,0,0.0237,0.024,0,0,0,0,0,0,0,0,-0.0202,-0.0196,-0.0143,-0.0137,-0.0129,-0.0045,-0.0036,0.0027,0.002,-0.0033,0.0024,0.0025,0.0129,0.0141,0.0162,0.0237,0.0245,0.0238,0.0242,0.0244,0.0246,0,0,0,0,0,0,0,-0.0207,-0.02,-0.0149,-0.0142,-0.0133,-0.0087,-0.0077,-0.0024,0.0042,-0.0028,-0.0021,-0.0012,0.0133,0.0155,0.0167,0.0248,0.0238,0.0243,0.0247,0.0249,0.0399,0.0399,0,0,0,0,0,0,-0.0231,-0.0205,-0.0152,-0.0145,-0.0166,-0.0088,-0.0076,-0.0072,0.004,0.0057,-0.0014,-0.0008,0.0144,0.016,0.0174,0.0208,0.0244,0.025,0.0254,0.0399,0.0399,0.0399,0,0,0,0,0,0,-0.0233,-0.0227,-0.0157,-0.0174,-0.0162,-0.0089,-0.0084,-0.007,-0.0046,0.0049,0.0069,-0.0004,0.0146,0.0165,0.0221,0.0216,0.0253,0.0258,0.0398,0.0399,0.0399,0.0267,0,0,0,0,0,0,-0.0235,-0.0229,-0.0236,-0.0176,-0.0162,-0.0138,-0.0086,-0.0069,-0.0044,-0.0036,0.0064,0.0083,0.0149,0.0211,0.0227,0.0225,0.0263,0.0398,0.0399,0.0399,0.0271,0.0263,0.0256,0,0,0,0,0,-0.0238,-0.0251,-0.0237,-0.0231,-0.0173,-0.0139,-0.0127,-0.0068,-0.0046,-0.0041,0.0027,0.008,0.0227,0.0215,0.0234,0.0234,0.0398,0.0398,0.0399,0.0274,0.0264,0.0256,0,0,0,0,0,0,-0.0277,-0.0241,-0.0224,-0.0224,-0.019,-0.0123,-0.0114,-0.0081,-0.0026,-0.0016,0.0074,0.0097,0.0145,0.0209,0.0194,0.0283,0.0325,0.0329,0.0224,0.0215,0.0208,0.0198,0.0268,0,0,0,0,0,-0.0295,-0.0297,-0.0252,-0.0252,-0.0241,-0.0184,-0.0164,-0.0128,-0.0072,-0.0046,0.002,0.0098,0.0161,0.0201,0.0265,0.0306,0.0362,0.0324,0.0317,0.0309,0.0317,0.0379,0.0377,0.0402,0.0402,0.0402,0,0,-0.0308,-0.029,-0.0289,-0.0261,-0.023,-0.0219,-0.0167,-0.0145,-0.0128,-0.0036,0.0005,0.0066,0.0165,0.0213,0.0242,0.0266,0.0331,0.031,0.0303,0.0315,0.0379,0.0377,0.0375,0.0402,0.0402,0.0402,0,0,-0.0341,-0.0325,-0.034,-0.032,-0.0288,-0.025,-0.0252,-0.0197,-0.0164,-0.0126,-0.0053,0.0002,0.0098,0.0166,0.0214,0.0206,0.0282,0.0231,0.019,0.0249,0.0247,0.0246,0.0297,0.0302,0.0233,0.0233,0.0233,0,-0.036,-0.0372,-0.0337,-0.0345,-0.0331,-0.0273,-0.0278,-0.024,-0.0173,-0.0148,-0.0126,0.0009,0.0079,0.0151,0.0151,0.0187,0.0232,0.0207,0.0235,0.0236,0.0237,0.029,0.0297,0.0227,0.0228,0.0228,0.0229,0,-0.0401,-0.0409,-0.0416,-0.0407,-0.0386,-0.0383,-0.0331,-0.0308,-0.0269,-0.0222,-0.0158,-0.007,0.0018,0.0042,0.0095,0.0143,0.0175,0.0206,0.0247,0.0226,0.0284,0.0293,0.0218,0.022,0.0222,0.0224,0,0,-0.0446,-0.0448,-0.0451,-0.0457,-0.042,-0.0407,-0.0385,-0.0343,-0.0322,-0.0262,-0.0224,-0.013,-0.0082,-0.0023,0.0047,0.0098,0.013,0.0148,0.0154,0.0179,0.0255,0.0306,0.0322,0.016,0.0161,0.0162,0.0285,0,-0.0489,-0.0529,-0.0506,-0.0523,-0.0535,-0.0478,-0.0459,-0.041,-0.0356,-0.0306,-0.0217,-0.0156,-0.0104,-0.0069,-0.0012,0.0104,0.0153,0.0095,0.0293,0.0299,0.0329,0.0334,0.0376,0.0492,0.0295,0.0297,0.0298,0,-0.0539,-0.0558,-0.0595,-0.0586,-0.0584,-0.0579,-0.0533,-0.0507,-0.0422,-0.0377,-0.0304,-0.0226,-0.0132,-0.0095,0.0078,0.0038,0.0135,0.0216,0.0223,0.0328,0.0368,0.049,0.0518,0.0647,0.0313,0.0312,0.0311,0,-0.0595,-0.0615,-0.0649,-0.0648,-0.0628,-0.0625,-0.0605,-0.0534,-0.0507,-0.0421,-0.0384,-0.0267,-0.0189,-0.0068,0.0106,0.0091,0.0298,0.0302,0.0438,0.0443,0.0551,0.0563,0.0716,0.0416,0.0415,0.0415,0.0415,0,-0.0652,-0.0676,-0.0683,-0.0702,-0.0727,-0.0685,-0.0682,-0.0643,-0.0574,-0.0521,-0.0427,-0.0347,-0.0178,-0.0033,0.0098,0.031,0.0298,0.0441,0.0484,0.0505,0.0511,0.0689,0.0735,0.042,0.0419,0.0418,0.0417,0,-0.0707,-0.0715,-0.0753,-0.0757,-0.0759,-0.0776,-0.0747,-0.0732,-0.0663,-0.0589,-0.0564,-0.0396,-0.0196,-0.0022,0.0207,0.0319,0.0593,0.0573,0.0583,0.0625,0.0848,0.0884,0.1092,0.1186,0.0728,0.073,0.0732,0,-0.074,-0.077,-0.0805,-0.0823,-0.0827,-0.084,-0.084,-0.0789,-0.0752,-0.0596,-0.0552,-0.0357,-0.0169,0.0168,0.0388,0.0627,0.0716,0.0788,0.0767,0.088,0.0953,0.0964,0.1028,0.0855,0.0857,0.0859,0.0861,0,-0.0793,-0.0807,-0.0837,-0.0866,-0.0884,-0.0895,-0.0879,-0.0855,-0.0752,-0.0644,-0.0446,-0.0288,0.0015,0.033,0.0613,0.0744,0.089,0.0839,0.0967,0.1078,0.1094,0.1197,0.0743,0.088,0.0878,0.0877,0.0876,0.0875,-0.0821,-0.0849,-0.0866,-0.0878,-0.0899,-0.0869,-0.0837,-0.0769,-0.0645,-0.0401,-0.0295,0.0042,0.0321,0.0739,0.0884,0.114,0.1083,0.1212,0.125,0.1253,0.1339,0.0919,0.1094,0.1093,0.1093,0.1092,0.1092,0,-0.0822,-0.0832,-0.0858,-0.0849,-0.0831,-0.0847,-0.0792,-0.0702,-0.049,-0.026,0.0003,0.0524,0.0862,0.1093,0.1389,0.1542,0.1569,0.1601,0.1632,0.1682,0.1334,0.1335,0.1557,0.1557,0.1557,0.1557,0.1557,0.1557,-0.0816,-0.0817,-0.0804,-0.0738,-0.0733,-0.0662,-0.0602,-0.0452,-0.0272,0.0179,0.0548,0.0818,0.1125,0.1575,0.1864,0.1894,0.2041,0.2007,0.209,0.1845,0.181,0.1778,0.1791,0.2106,0.2106,0.2432,0.2435,0.2438]}],[{"header":{"parameterUnit":"m.s-1","parameterCategory":2,"la1":30.2991,"la2":30.254,"lo1":-89.0895,"lo2":-89.0444,"dy":0.0017,"dx":0.0017,"nx":28,"ny":28,"refTime":"2023-08-27T09:00:00:Z","depth":"2","parameterNumber":2,"parameterNumberName":"U-component_of_CURRENTS"},"data":[0,0,0,0,0,0,0,0,0,0,0,0,0,0,0,0,0,0,0,0,0,0,0,0,0,0,0,0,0,0,0,0,0,0,0,0,0,0,0,0,0,0,0,0,0,0,0,0,0,0,0,0,0,0,0,0,0,0,-0.2216,-0.2217,0,-0.2282,-0.2283,-0.2283,-0.2301,-0.2301,-0.2301,-0.23,-0.2335,-0.2336,-0.2338,0,0,0,0,0,0,0,0,0,0,0,0,0,-0.213,-0.2131,-0.2216,-0.2217,-0.2218,-0.2282,-0.2283,-0.2283,-0.2301,-0.2301,-0.2301,-0.23,-0.2335,-0.2336,-0.2338,0,0,0,0,0,0,0,0,0,0,0,0,0,-0.2177,-0.2132,-0.2216,-0.2236,-0.2238,-0.2282,-0.2283,-0.2284,-0.2301,-0.2301,-0.2301,-0.23,-0.2334,-0.2336,-0.2338,-0.2357,0,0,-0.2343,-0.2344,0,0,0,0,0,0,0,0,-0.2175,-0.218,-0.2232,-0.2234,-0.2237,-0.2284,-0.2265,-0.2307,-0.2301,-0.2276,-0.23,-0.23,-0.2316,-0.232,-0.2332,-0.2358,-0.236,-0.2343,-0.2344,-0.2345,-0.2346,0,0,0,0,0,0,0,-0.2171,-0.2178,-0.2241,-0.2233,-0.2236,-0.2249,-0.2255,-0.2273,-0.2296,-0.2278,-0.228,-0.2289,-0.2317,-0.233,-0.2332,-0.236,-0.2343,-0.2345,-0.2346,-0.2347,-0.2385,-0.2385,0,0,0,0,0,0,-0.2165,-0.2175,-0.2239,-0.2243,-0.2206,-0.2251,-0.2258,-0.2268,-0.2297,-0.2301,-0.229,-0.229,-0.2327,-0.233,-0.2334,-0.2346,-0.2345,-0.2347,-0.2348,-0.2385,-0.2385,-0.2385,0,0,0,0,0,0,-0.2163,-0.217,-0.2236,-0.2211,-0.2221,-0.2253,-0.2265,-0.227,-0.2283,-0.2306,-0.2309,-0.2297,-0.2327,-0.2331,-0.235,-0.2348,-0.2348,-0.2349,-0.2385,-0.2385,-0.2385,-0.2379,0,0,0,0,0,0,-0.216,-0.2169,-0.217,-0.2211,-0.2222,-0.2261,-0.2266,-0.2272,-0.229,-0.2291,-0.2314,-0.2317,-0.2327,-0.2348,-0.2352,-0.235,-0.2351,-0.2385,-0.2385,-0.2385,-0.2379,-0.2378,-0.2378,0,0,0,0,0,-0.2157,-0.2163,-0.2169,-0.2177,-0.2223,-0.2261,-0.2268,-0.2289,-0.2291,-0.2298,-0.2313,-0.2316,-0.235,-0.235,-0.2355,-0.2353,-0.2385,-0.2385,-0.2385,-0.2379,-0.2379,-0.2378,0,0,0,0,0,0,-0.2128,-0.2167,-0.2174,-0.2192,-0.2222,-0.2265,-0.2274,-0.229,-0.2309,-0.2306,-0.2324,-0.2328,-0.2342,-0.235,-0.2349,-0.2363,-0.2365,-0.2366,-0.2359,-0.2358,-0.2358,-0.236,-0.2352,0,0,0,0,0,-0.2121,-0.2134,-0.2175,-0.2188,-0.2202,-0.2237,-0.2253,-0.227,-0.2296,-0.2304,-0.2322,-0.2334,-0.2347,-0.2354,-0.2367,-0.2381,-0.2374,-0.238,-0.238,-0.238,-0.2385,-0.2375,-0.2374,-0.2385,-0.2385,-0.2385,0,0,-0.2114,-0.2137,-0.2144,-0.2183,-0.2206,-0.2236,-0.2245,-0.2271,-0.2293,-0.2304,-0.233,-0.2336,-0.235,-0.2363,-0.2369,-0.2369,-0.2369,-0.2379,-0.2379,-0.2385,-0.2375,-0.2374,-0.2373,-0.2385,-0.2385,-0.2385,0,0,-0.2117,-0.2126,-0.2143,-0.217,-0.2207,-0.2229,-0.2237,-0.2278,-0.2289,-0.2317,-0.2324,-0.2329,-0.2358,-0.2363,-0.2369,-0.2375,-0.2367,-0.2375,-0.2377,-0.2367,-0.2366,-0.2365,-0.2337,-0.2334,-0.2374,-0.2374,-0.2374,0,-0.2108,-0.2136,-0.2154,-0.2183,-0.2205,-0.2227,-0.2256,-0.2274,-0.2316,-0.2325,-0.2322,-0.2351,-0.2357,-0.237,-0.2369,-0.2373,-0.2362,-0.2378,-0.2366,-0.2365,-0.2365,-0.2336,-0.2333,-0.2374,-0.2374,-0.2374,-0.2374,0,-0.2132,-0.2154,-0.2166,-0.2208,-0.2231,-0.2256,-0.2289,-0.2305,-0.2316,-0.2335,-0.2348,-0.2353,-0.237,-0.2365,-0.2371,-0.2369,-0.236,-0.2366,-0.2367,-0.2363,-0.2333,-0.233,-0.2373,-0.2373,-0.2373,-0.2374,0,0,-0.2104,-0.2171,-0.2171,-0.2195,-0.2245,-0.2266,-0.2297,-0.233,-0.2343,-0.236,-0.2373,-0.2382,-0.2378,-0.2384,-0.2382,-0.2371,-0.2345,-0.2367,-0.2366,-0.2337,-0.231,-0.2225,-0.2212,-0.2351,-0.2351,-0.2351,-0.2285,0,-0.2115,-0.2168,-0.2199,-0.2241,-0.2269,-0.2299,-0.2328,-0.2355,-0.237,-0.2384,-0.2379,-0.2389,-0.2387,-0.2385,-0.2376,-0.2364,-0.2339,-0.2361,-0.232,-0.2318,-0.2242,-0.2207,-0.2047,-0.1969,-0.2281,-0.2281,-0.228,0,-0.212,-0.2156,-0.2203,-0.2259,-0.2273,-0.2299,-0.2334,-0.2363,-0.2388,-0.2398,-0.2404,-0.2405,-0.24,-0.2388,-0.236,-0.2377,-0.2341,-0.232,-0.2317,-0.224,-0.2227,-0.2027,-0.195,-0.2274,-0.2275,-0.2275,-0.2275,0,-0.208,-0.215,-0.2183,-0.2205,-0.2275,-0.2293,-0.2323,-0.2361,-0.2381,-0.2399,-0.241,-0.2409,-0.2404,-0.2376,-0.2334,-0.2351,-0.2282,-0.2302,-0.2184,-0.2178,-0.2035,-0.2015,-0.226,-0.226,-0.226,-0.226,-0.2261,0,-0.207,-0.2089,-0.2166,-0.2182,-0.2211,-0.227,-0.2294,-0.2324,-0.2366,-0.2371,-0.2408,-0.2397,-0.2402,-0.2367,-0.2328,-0.2234,-0.2276,-0.2171,-0.2152,-0.2025,-0.2007,-0.2276,-0.2279,-0.2258,-0.2258,-0.2259,-0.2259,0,-0.2007,-0.2066,-0.21,-0.2173,-0.2192,-0.2205,-0.2272,-0.2287,-0.2344,-0.2349,-0.2356,-0.2388,-0.2334,-0.2311,-0.2252,-0.2213,-0.2139,-0.2088,-0.1927,-0.1891,-0.2044,-0.2048,-0.1965,-0.1961,-0.1958,-0.1955,-0.1953,0,-0.1977,-0.1992,-0.2064,-0.2074,-0.2102,-0.2141,-0.2163,-0.2249,-0.2265,-0.232,-0.2307,-0.2291,-0.2227,-0.2124,-0.2034,-0.1931,-0.2018,-0.175,-0.1754,-0.2022,-0.2013,-0.2021,-0.2028,-0.1556,-0.155,-0.1546,-0.1543,0,-0.19,-0.1927,-0.1951,-0.1971,-0.1997,-0.203,-0.207,-0.2098,-0.2179,-0.2201,-0.2182,-0.2141,-0.2033,-0.1851,-0.174,-0.1667,-0.1762,-0.166,-0.1965,-0.1661,-0.1632,-0.1626,-0.1647,-0.1505,-0.1508,-0.1511,-0.1513,-0.1515,-0.1818,-0.1806,-0.1829,-0.1833,-0.1867,-0.1879,-0.1865,-0.1929,-0.1947,-0.195,-0.2,-0.1887,-0.1809,-0.1548,-0.1434,-0.1356,-0.1482,-0.1435,-0.145,-0.1469,-0.1439,-0.1407,-0.123,-0.1233,-0.1234,-0.1236,-0.1238,0,-0.1686,-0.1681,-0.1683,-0.1682,-0.1658,-0.1725,-0.1757,-0.1719,-0.1696,-0.1743,-0.1712,-0.1477,-0.1335,-0.1262,-0.1073,-0.1031,-0.1038,-0.0997,-0.1014,-0.1051,-0.1084,-0.1038,-0.0721,-0.072,-0.0719,-0.0717,0,0,-0.1614,-0.1553,-0.1548,-0.1454,-0.146,-0.1379,-0.1373,-0.1358,-0.1357,-0.1315,-0.1271,-0.1339,-0.1264,-0.1025,-0.0936,-0.0808,-0.0935,-0.0764,-0.1175,-0.1236,-0.1268,-0.1325,-0.1293,0,0,0,0,0]},{"header":{"parameterUnit":"m.s-1","parameterCategory":2,"la1":30.2991,"la2":30.254,"lo1":-89.0895,"lo2":-89.0444,"dy":0.0017,"dx":0.0017,"nx":28,"ny":28,"refTime":"2023-08-27T09:00:00:Z","depth":"2","parameterNumber":3,"parameterNumberName":"V-component_of_CURRENTS"},"data":[0,0,0,0,0,0,0,0,0,0,0,0,0,0,0,0,0,0,0,0,0,0,0,0,0,0,0,0,0,0,0,0,0,0,0,0,0,0,0,0,0,0,0,0,0,0,0,0,0,0,0,0,0,0,0,0,0,0,-0.0262,-0.0261,0,-0.0167,-0.0166,-0.0165,-0.0095,-0.0094,-0.0094,-0.0093,0.0021,0.0023,0.0026,0,0,0,0,0,0,0,0,0,0,0,0,0,-0.0328,-0.0328,-0.0262,-0.0261,-0.026,-0.0167,-0.0166,-0.0165,-0.0095,-0.0094,-0.0094,-0.0093,0.002,0.0023,0.0026,0,0,0,0,0,0,0,0,0,0,0,0,0,-0.0273,-0.0328,-0.0262,-0.0214,-0.0209,-0.0168,-0.0166,-0.0164,-0.0095,-0.0094,-0.0094,-0.0093,0.0019,0.0023,0.0026,0.0033,0,0,0.0038,0.004,0,0,0,0,0,0,0,0,-0.0276,-0.027,-0.0222,-0.0218,-0.0212,-0.0143,-0.0148,-0.0098,-0.0095,-0.0138,-0.0093,-0.0092,-0.0033,-0.0025,-0.0008,0.0038,0.0043,0.0038,0.0041,0.0042,0.0043,0,0,0,0,0,0,0,-0.028,-0.0274,-0.0224,-0.0221,-0.0215,-0.0179,-0.0171,-0.0138,-0.009,-0.0134,-0.0129,-0.012,-0.003,-0.0012,-0.0005,0.0045,0.0038,0.0042,0.0044,0.0045,0.0131,0.0131,0,0,0,0,0,0,-0.0297,-0.0278,-0.0227,-0.0221,-0.0243,-0.0179,-0.0169,-0.0165,-0.0091,-0.0079,-0.012,-0.0117,-0.0019,-0.001,-0.0001,0.0024,0.0042,0.0046,0.0048,0.0131,0.0131,0.0131,0,0,0,0,0,0,-0.0299,-0.0293,-0.0231,-0.0247,-0.0237,-0.0179,-0.0174,-0.0164,-0.0145,-0.0081,-0.0068,-0.0113,-0.0018,-0.0006,0.0028,0.0029,0.0047,0.0051,0.0131,0.0131,0.0131,0.0066,0,0,0,0,0,0,-0.0301,-0.0295,-0.0301,-0.0249,-0.0237,-0.0215,-0.0175,-0.0162,-0.0141,-0.0135,-0.0071,-0.0059,-0.0016,0.0022,0.0032,0.0034,0.0054,0.0131,0.0131,0.0131,0.0068,0.0064,0.006,0,0,0,0,0,-0.0304,-0.0316,-0.0302,-0.0296,-0.0246,-0.0215,-0.0206,-0.0161,-0.0142,-0.014,-0.0094,-0.0061,0.003,0.0025,0.0036,0.004,0.0131,0.0131,0.0131,0.007,0.0064,0.006,0,0,0,0,0,0,-0.0343,-0.0308,-0.0292,-0.0291,-0.026,-0.0204,-0.0199,-0.0169,-0.0131,-0.0126,-0.0064,-0.005,-0.0018,0.0017,0.001,0.0065,0.0087,0.0089,0.0036,0.0032,0.0028,0.0017,0.0057,0,0,0,0,0,-0.0357,-0.0358,-0.0316,-0.0315,-0.0305,-0.0255,-0.0238,-0.021,-0.0167,-0.015,-0.0104,-0.0054,-0.001,0.0014,0.0055,0.008,0.012,0.0092,0.0087,0.0084,0.0083,0.0143,0.0144,0.0131,0.0131,0.0131,0,0,-0.0369,-0.0352,-0.035,-0.0324,-0.0296,-0.0287,-0.0243,-0.0225,-0.021,-0.0145,-0.0116,-0.007,-0.0007,0.0026,0.0043,0.0056,0.0107,0.0084,0.008,0.0082,0.0143,0.0144,0.0145,0.0131,0.0131,0.0131,0,0,-0.0399,-0.0383,-0.0396,-0.0378,-0.0348,-0.0316,-0.0316,-0.0268,-0.0242,-0.0213,-0.0157,-0.0112,-0.0054,-0.0001,0.0032,0.0029,0.0081,0.004,0.0015,0.0072,0.0074,0.0075,0.0119,0.0125,0.0041,0.0041,0.0041,0,-0.0416,-0.0425,-0.0394,-0.04,-0.0387,-0.0335,-0.034,-0.0307,-0.0252,-0.0229,-0.0215,-0.0112,-0.0063,-0.0003,-0.0002,0.0021,0.0055,0.0026,0.0066,0.0069,0.0072,0.0117,0.0124,0.0038,0.0038,0.0038,0.0039,0,-0.0453,-0.0459,-0.0465,-0.0455,-0.0437,-0.0434,-0.0387,-0.0367,-0.0332,-0.0289,-0.0233,-0.0164,-0.0098,-0.0076,-0.004,0.001,0.0027,0.005,0.0075,0.0069,0.0117,0.0126,0.0033,0.0034,0.0035,0.0036,0,0,-0.0492,-0.0493,-0.0496,-0.05,-0.0467,-0.0455,-0.0435,-0.0395,-0.0375,-0.032,-0.0282,-0.0205,-0.0161,-0.012,-0.0063,-0.0012,0.0036,0.0021,0.0025,0.0057,0.0153,0.0182,0.0195,0.0064,0.0066,0.0067,0.0174,0,-0.0531,-0.0565,-0.0544,-0.0559,-0.0569,-0.0517,-0.0499,-0.0454,-0.0404,-0.0356,-0.0273,-0.0221,-0.0178,-0.0147,-0.0089,0.0009,0.0059,0.0004,0.016,0.0165,0.0186,0.0207,0.0183,0.0278,0.0183,0.0185,0.0186,0,-0.0575,-0.0591,-0.0624,-0.0613,-0.0611,-0.0606,-0.0562,-0.0539,-0.0457,-0.0416,-0.0345,-0.0276,-0.0187,-0.0156,0.0002,-0.0036,0.0049,0.012,0.0126,0.0184,0.0212,0.0272,0.0299,0.0202,0.0201,0.0199,0.0198,0,-0.0626,-0.0642,-0.0672,-0.067,-0.0651,-0.0647,-0.0628,-0.0561,-0.0535,-0.0452,-0.042,-0.0305,-0.0237,-0.0124,0.0026,0.0014,0.0199,0.0206,0.0311,0.0314,0.0342,0.0345,0.0313,0.0312,0.0312,0.0312,0.0312,0,-0.0678,-0.0698,-0.0703,-0.0721,-0.0745,-0.0703,-0.07,-0.0662,-0.0595,-0.0552,-0.0458,-0.0389,-0.0225,-0.0097,0.0021,0.0202,0.0201,0.0315,0.035,0.0317,0.0317,0.0289,0.0285,0.0316,0.0315,0.0314,0.0314,0,-0.0731,-0.0736,-0.0772,-0.0773,-0.0775,-0.0792,-0.0764,-0.0753,-0.0684,-0.0624,-0.06,-0.0441,-0.0265,-0.0101,0.0109,0.0206,0.0364,0.0426,0.037,0.0397,0.0436,0.0427,0.0547,0.0549,0.0551,0.0553,0.0554,0,-0.0765,-0.0792,-0.0825,-0.0852,-0.0858,-0.0871,-0.0876,-0.0814,-0.0786,-0.0642,-0.0612,-0.0431,-0.0276,0.0029,0.0233,0.0446,0.0435,0.0531,0.0509,0.0441,0.0464,0.0452,0.0441,0.0517,0.0518,0.0518,0.0519,0,-0.0822,-0.0835,-0.0867,-0.0937,-0.0961,-0.0981,-0.0973,-0.0961,-0.086,-0.0776,-0.0618,-0.048,-0.0161,0.0097,0.0364,0.0474,0.0491,0.0552,0.0521,0.0456,0.042,0.0439,0.0428,0.0525,0.0524,0.0524,0.0523,0.0523,-0.0861,-0.0905,-0.0958,-0.1018,-0.1054,-0.1086,-0.1094,-0.1046,-0.0985,-0.084,-0.066,-0.0429,-0.0147,0.0236,0.044,0.0599,0.0592,0.0616,0.061,0.0605,0.0577,0.0547,0.0669,0.0669,0.067,0.067,0.067,0,-0.0907,-0.0959,-0.1031,-0.1106,-0.1159,-0.1156,-0.1151,-0.1116,-0.1035,-0.0854,-0.0671,-0.0346,-0.0043,0.0225,0.0507,0.0683,0.0652,0.0684,0.0619,0.0613,0.0607,0.0576,0.067,0.0671,0.0671,0.0671,0,0,-0.0934,-0.1018,-0.1064,-0.1181,-0.1225,-0.1258,-0.125,-0.1173,-0.1036,-0.0843,-0.0654,-0.0412,-0.003,0.0163,0.0399,0.055,0.0522,0.0544,0.0526,0.0417,0.0409,0.0553,0.0497,0,0,0,0,0]}],[{"header":{"parameterUnit":"m.s-1","parameterCategory":2,"la1":30.2991,"la2":30.254,"lo1":-89.0895,"lo2":-89.0444,"dy":0.0017,"dx":0.0017,"nx":28,"ny":28,"refTime":"2023-08-27T09:00:00:Z","depth":"4","parameterNumber":2,"parameterNumberName":"U-component_of_CURRENTS"},"data":[0,0,0,0,0,0,0,0,0,0,0,0,0,0,0,0,0,0,0,0,0,0,0,0,0,0,0,0,0,0,0,0,0,0,0,0,0,0,0,0,0,0,0,0,0,0,0,0,0,0,0,0,0,0,0,0,0,0,-0.1663,-0.1664,0,-0.1742,-0.1743,-0.1744,-0.179,-0.179,-0.179,-0.1791,-0.1843,-0.1844,-0.1845,0,0,0,0,0,0,0,0,0,0,0,0,0,-0.1551,-0.1553,-0.1663,-0.1664,-0.1665,-0.1742,-0.1743,-0.1744,-0.179,-0.179,-0.1791,-0.1791,-0.1842,-0.1843,-0.1845,0,0,0,0,0,0,0,0,0,0,0,0,0,-0.161,-0.1553,-0.1663,-0.1698,-0.1703,-0.1742,-0.1743,-0.1744,-0.179,-0.179,-0.1791,-0.1791,-0.1842,-0.1843,-0.1845,-0.1844,0,0,-0.185,-0.185,0,0,0,0,0,0,0,0,-0.1607,-0.1614,-0.1692,-0.1696,-0.1701,-0.1758,-0.1723,-0.1777,-0.179,-0.1755,-0.1791,-0.1791,-0.1813,-0.1817,-0.1828,-0.1847,-0.1849,-0.185,-0.1851,-0.1852,-0.1852,0,0,0,0,0,0,0,-0.1603,-0.1611,-0.1692,-0.1693,-0.1699,-0.1711,-0.172,-0.1733,-0.1778,-0.1758,-0.1762,-0.1773,-0.1815,-0.1827,-0.183,-0.185,-0.185,-0.1851,-0.1852,-0.1853,-0.1904,-0.1905,0,0,0,0,0,0,-0.1596,-0.1607,-0.169,-0.1695,-0.1656,-0.1713,-0.1723,-0.1738,-0.1778,-0.1786,-0.1773,-0.1775,-0.1824,-0.1828,-0.1832,-0.1886,-0.1852,-0.1853,-0.1854,-0.1904,-0.1904,-0.1905,0,0,0,0,0,0,-0.1594,-0.1603,-0.1687,-0.1654,-0.1666,-0.1714,-0.1731,-0.1739,-0.1779,-0.1791,-0.1797,-0.1807,-0.1824,-0.1829,-0.1866,-0.1886,-0.1854,-0.1855,-0.1903,-0.1904,-0.1905,-0.196,0,0,0,0,0,0,-0.159,-0.1602,-0.1621,-0.1654,-0.1668,-0.1724,-0.1731,-0.174,-0.1784,-0.1789,-0.1822,-0.1826,-0.1825,-0.1864,-0.1868,-0.1888,-0.1856,-0.1903,-0.1904,-0.1904,-0.1958,-0.1963,-0.1967,0,0,0,0,0,-0.1586,-0.1606,-0.1621,-0.1632,-0.1689,-0.1725,-0.1734,-0.1768,-0.1786,-0.1805,-0.183,-0.1826,-0.1871,-0.1866,-0.187,-0.1891,-0.1903,-0.1904,-0.1904,-0.1956,-0.1962,-0.1967,0,0,0,0,0,0,-0.157,-0.1614,-0.1631,-0.1665,-0.17,-0.1734,-0.176,-0.1784,-0.182,-0.183,-0.1841,-0.1847,-0.1884,-0.1877,-0.1872,-0.1905,-0.1882,-0.1884,-0.192,-0.1925,-0.1929,-0.1924,-0.1858,0,0,0,0,0,-0.1575,-0.1603,-0.1642,-0.1673,-0.1691,-0.1731,-0.1755,-0.178,-0.1811,-0.183,-0.1855,-0.1872,-0.1886,-0.19,-0.191,-0.1936,-0.1914,-0.1946,-0.1951,-0.1955,-0.1952,-0.1947,-0.1951,-0.1908,-0.1908,-0.1908,0,0,-0.1579,-0.1607,-0.1625,-0.1672,-0.1703,-0.1735,-0.1747,-0.1791,-0.1823,-0.1828,-0.1884,-0.1896,-0.1896,-0.1924,-0.1939,-0.1926,-0.1954,-0.1956,-0.196,-0.1954,-0.1948,-0.1953,-0.1956,-0.1909,-0.1908,-0.1908,0,0,-0.1594,-0.1626,-0.1653,-0.1683,-0.1732,-0.1755,-0.1773,-0.1823,-0.1851,-0.1899,-0.1906,-0.1932,-0.1963,-0.1966,-0.1968,-0.2002,-0.1979,-0.2005,-0.2027,-0.2023,-0.2027,-0.203,-0.2,-0.2,-0.2006,-0.2006,-0.2006,0,-0.16,-0.1638,-0.1667,-0.1699,-0.1729,-0.1767,-0.1801,-0.1832,-0.189,-0.1912,-0.1922,-0.1969,-0.1978,-0.1999,-0.2012,-0.2013,-0.1999,-0.2011,-0.203,-0.2033,-0.2035,-0.2003,-0.2003,-0.2009,-0.2009,-0.2008,-0.2008,0,-0.1626,-0.1667,-0.1686,-0.1738,-0.1772,-0.1808,-0.185,-0.189,-0.1928,-0.1956,-0.2,-0.2013,-0.2036,-0.2044,-0.2042,-0.2062,-0.2042,-0.204,-0.2019,-0.2043,-0.2008,-0.2006,-0.2013,-0.2012,-0.2011,-0.201,0,0,-0.1606,-0.169,-0.1698,-0.1731,-0.1797,-0.1822,-0.1876,-0.1927,-0.196,-0.2008,-0.2043,-0.2074,-0.2084,-0.2086,-0.2087,-0.2087,-0.2092,-0.2075,-0.2074,-0.2049,-0.2067,-0.1928,-0.1912,-0.21,-0.21,-0.2101,-0.2034,0,-0.1621,-0.1683,-0.1723,-0.1786,-0.1819,-0.187,-0.1914,-0.1963,-0.2003,-0.2044,-0.2061,-0.2093,-0.2098,-0.2112,-0.2116,-0.2103,-0.2091,-0.2108,-0.2044,-0.2041,-0.1918,-0.1906,-0.2101,-0.2033,-0.2032,-0.2032,-0.2031,0,-0.1622,-0.1668,-0.1733,-0.1811,-0.183,-0.1876,-0.1944,-0.1988,-0.2043,-0.2073,-0.2106,-0.2121,-0.2138,-0.2132,-0.2118,-0.2133,-0.2103,-0.2083,-0.208,-0.1927,-0.1898,-0.2005,-0.2028,-0.2028,-0.2028,-0.2028,-0.2029,0,-0.1577,-0.1667,-0.1721,-0.175,-0.1843,-0.1885,-0.1935,-0.2001,-0.2036,-0.209,-0.2115,-0.2139,-0.215,-0.2133,-0.2099,-0.2117,-0.2058,-0.2075,-0.1912,-0.1902,-0.2026,-0.2024,-0.2045,-0.2045,-0.2046,-0.2046,-0.2046,0,-0.1554,-0.1597,-0.1711,-0.1737,-0.1797,-0.1872,-0.1932,-0.198,-0.2047,-0.2066,-0.2127,-0.2123,-0.2155,-0.2127,-0.2095,-0.198,-0.2052,-0.1899,-0.1872,-0.2049,-0.205,-0.2024,-0.2022,-0.2043,-0.2044,-0.2044,-0.2045,0,-0.1483,-0.1565,-0.1628,-0.1741,-0.1779,-0.1819,-0.1926,-0.1954,-0.2037,-0.2059,-0.2076,-0.212,-0.207,-0.2061,-0.2013,-0.1952,-0.1871,-0.1808,-0.1974,-0.196,-0.172,-0.1723,-0.1627,-0.1621,-0.1616,-0.1612,-0.1609,0,-0.1448,-0.1479,-0.1609,-0.1642,-0.1697,-0.1776,-0.1818,-0.1928,-0.1949,-0.2023,-0.2006,-0.2006,-0.2004,-0.1816,-0.1834,-0.1737,-0.1718,-0.1676,-0.172,-0.1692,-0.1676,-0.1686,-0.1694,-0.1602,-0.16,-0.1599,-0.1598,0,-0.1367,-0.1431,-0.1477,-0.1544,-0.1606,-0.1661,-0.173,-0.1746,-0.1842,-0.1942,-0.1872,-0.1827,-0.1758,-0.1702,-0.1628,-0.157,-0.1711,-0.1627,-0.1638,-0.1678,-0.1661,-0.1652,-0.1666,-0.1582,-0.1584,-0.1585,-0.1586,0,-0.1298,-0.1303,-0.1368,-0.1411,-0.1484,-0.1501,-0.1574,-0.1587,-0.1629,-0.1729,-0.169,-0.1683,-0.1725,-0.161,-0.1543,-0.147,-0.1459,-0.1432,-0.1453,-0.1471,-0.1451,-0.1408,-0.1209,0,0,0,0,0,-0.1208,-0.1189,-0.1221,-0.126,-0.133,-0.1364,-0.1477,-0.1553,-0.1669,-0.1572,-0.1629,-0.1549,-0.1454,-0.1458,-0.1344,-0.1471,-0.1466,-0.1336,-0.1449,-0.1491,-0.151,-0.15,0,0,0,0,0,0,-0.1142,-0.1158,-0.1164,-0.1117,-0.1114,-0.1166,-0.1236,-0.1328,-0.1291,-0.1411,-0.1359,-0.1443,-0.1364,-0.1462,-0.1297,-0.1298,-0.1339,-0.1347,-0.1343,-0.148,-0.1497,-0.1513,-0.1509,0,0,0,0,0]},{"header":{"parameterUnit":"m.s-1","parameterCategory":2,"la1":30.2991,"la2":30.254,"lo1":-89.0895,"lo2":-89.0444,"dy":0.0017,"dx":0.0017,"nx":28,"ny":28,"refTime":"2023-08-27T09:00:00:Z","depth":"4","parameterNumber":3,"parameterNumberName":"V-component_of_CURRENTS"},"data":[0,0,0,0,0,0,0,0,0,0,0,0,0,0,0,0,0,0,0,0,0,0,0,0,0,0,0,0,0,0,0,0,0,0,0,0,0,0,0,0,0,0,0,0,0,0,0,0,0,0,0,0,0,0,0,0,0,0,-0.0207,-0.0207,0,-0.0148,-0.0147,-0.0147,-0.011,-0.011,-0.0109,-0.0109,-0.0048,-0.0047,-0.0046,0,0,0,0,0,0,0,0,0,0,0,0,0,-0.025,-0.025,-0.0208,-0.0207,-0.0206,-0.0148,-0.0147,-0.0147,-0.011,-0.011,-0.0109,-0.0109,-0.0049,-0.0047,-0.0046,0,0,0,0,0,0,0,0,0,0,0,0,0,-0.0216,-0.025,-0.0208,-0.0181,-0.0178,-0.0148,-0.0147,-0.0146,-0.011,-0.011,-0.0109,-0.0109,-0.0049,-0.0047,-0.0045,-0.0039,0,0,-0.0039,-0.0038,0,0,0,0,0,0,0,0,-0.0218,-0.0214,-0.0185,-0.0182,-0.0179,-0.0136,-0.014,-0.011,-0.011,-0.0136,-0.0109,-0.0109,-0.0078,-0.0073,-0.0063,-0.0036,-0.0033,-0.0039,-0.0037,-0.0037,-0.0036,0,0,0,0,0,0,0,-0.022,-0.0216,-0.0184,-0.0185,-0.0181,-0.0158,-0.0153,-0.0134,-0.0109,-0.0133,-0.0131,-0.0124,-0.0076,-0.0065,-0.0061,-0.0033,-0.0039,-0.0037,-0.0036,-0.0035,-0.0001,-0.0001,0,0,0,0,0,0,-0.023,-0.0219,-0.0186,-0.0182,-0.0198,-0.0158,-0.0152,-0.015,-0.0109,-0.0103,-0.0124,-0.0122,-0.0069,-0.0064,-0.0059,-0.0045,-0.0037,-0.0035,-0.0033,-0.0,-0.0001,-0.0001,0,0,0,0,0,0,-0.0231,-0.0227,-0.0188,-0.0199,-0.0192,-0.0158,-0.0155,-0.0149,-0.014,-0.0102,-0.0096,-0.0122,-0.0069,-0.0062,-0.0045,-0.0042,-0.0034,-0.0032,-0.0,-0.0001,-0.0001,-0.0019,0,0,0,0,0,0,-0.0232,-0.0228,-0.0235,-0.02,-0.0192,-0.018,-0.0155,-0.0148,-0.0137,-0.0134,-0.0099,-0.0092,-0.0068,-0.0049,-0.0043,-0.0039,-0.003,0.0,-0.0,-0.0001,-0.0018,-0.002,-0.0022,0,0,0,0,0,-0.0234,-0.0245,-0.0236,-0.0232,-0.0201,-0.0181,-0.0175,-0.0149,-0.0137,-0.0139,-0.0112,-0.0094,-0.0049,-0.0047,-0.0041,-0.0036,0.0001,-0.0,-0.0001,-0.0017,-0.0019,-0.0022,0,0,0,0,0,0,-0.0264,-0.0241,-0.0231,-0.0233,-0.0213,-0.0174,-0.0175,-0.0155,-0.0134,-0.0134,-0.0096,-0.0088,-0.0072,-0.0057,-0.0056,-0.003,-0.0022,-0.0022,-0.0037,-0.0039,-0.0041,-0.0049,-0.0028,0,0,0,0,0,-0.0275,-0.0278,-0.0249,-0.025,-0.0245,-0.0212,-0.0201,-0.0184,-0.0158,-0.0149,-0.0122,-0.0096,-0.007,-0.0058,-0.0037,-0.0024,0.0004,-0.0019,-0.0021,-0.0023,-0.0026,0.0029,0.0033,-0.0004,-0.0004,-0.0004,0,0,-0.0285,-0.0274,-0.0274,-0.0257,-0.0241,-0.0236,-0.0205,-0.0196,-0.0187,-0.0146,-0.0133,-0.0103,-0.0069,-0.0051,-0.0042,-0.0037,-0.0,-0.0024,-0.0025,-0.0028,0.0029,0.0033,0.0036,-0.0005,-0.0004,-0.0004,0,0,-0.0308,-0.03,-0.0312,-0.03,-0.0282,-0.026,-0.0261,-0.0229,-0.0213,-0.0198,-0.016,-0.0128,-0.0102,-0.0064,-0.0044,-0.0047,-0.0013,-0.0047,-0.006,-0.0006,-0.0002,0.0002,0.0034,0.0041,-0.0047,-0.0047,-0.0047,0,-0.0322,-0.0331,-0.0311,-0.0317,-0.031,-0.0275,-0.0281,-0.026,-0.0225,-0.0208,-0.0202,-0.0135,-0.0105,-0.0059,-0.006,-0.0049,-0.0023,-0.0051,-0.0007,-0.0002,0.0002,0.0034,0.0042,-0.0048,-0.0048,-0.0048,-0.0048,0,-0.0349,-0.0358,-0.0364,-0.0361,-0.035,-0.0351,-0.032,-0.0308,-0.0285,-0.0254,-0.0213,-0.0164,-0.0122,-0.0105,-0.0083,-0.0038,-0.0032,-0.0014,0.0003,0.0005,0.0038,0.0047,-0.005,-0.0049,-0.0049,-0.0049,0,0,-0.0376,-0.0384,-0.0387,-0.0394,-0.0375,-0.0368,-0.0357,-0.0329,-0.0315,-0.0276,-0.0245,-0.0189,-0.0155,-0.013,-0.0088,-0.0041,0.0013,-0.0022,-0.0018,0.0015,0.0117,0.0097,0.0105,0.0041,0.0043,0.0044,0.0126,0,-0.0404,-0.0435,-0.0422,-0.044,-0.045,-0.0416,-0.0406,-0.0374,-0.034,-0.0304,-0.0236,-0.0199,-0.0166,-0.0143,-0.0088,-0.0011,0.0035,-0.0012,0.0105,0.0108,0.0095,0.0114,0.0049,0.0133,0.0135,0.0136,0.0137,0,-0.0434,-0.0451,-0.0483,-0.0481,-0.0481,-0.0485,-0.0457,-0.0442,-0.038,-0.035,-0.0292,-0.0239,-0.0161,-0.0137,-0.0003,-0.0036,0.0033,0.0092,0.0097,0.009,0.0105,0.0132,0.0153,0.0152,0.0151,0.015,0.0149,0,-0.0468,-0.0488,-0.0518,-0.0519,-0.0514,-0.0518,-0.0509,-0.0462,-0.0445,-0.0379,-0.0355,-0.0255,-0.0203,-0.0102,0.0016,0.0009,0.0162,0.0172,0.022,0.0219,0.022,0.0216,0.0267,0.0267,0.0267,0.0267,0.0267,0,-0.0498,-0.0522,-0.0543,-0.056,-0.059,-0.0562,-0.0571,-0.0545,-0.0496,-0.0468,-0.0386,-0.0332,-0.0191,-0.0086,0.0014,0.0141,0.0165,0.0219,0.0244,0.0208,0.0201,0.0226,0.022,0.027,0.0269,0.0269,0.0268,0,-0.0531,-0.0545,-0.0585,-0.0603,-0.0614,-0.0636,-0.0633,-0.0628,-0.0576,-0.0536,-0.0516,-0.0382,-0.0242,-0.0106,0.0071,0.0134,0.0258,0.0298,0.0238,0.0257,0.0276,0.0268,0.0353,0.0353,0.0353,0.0353,0.0353,0,-0.0551,-0.0578,-0.0633,-0.0669,-0.0686,-0.0712,-0.0727,-0.0684,-0.0665,-0.0557,-0.0533,-0.0392,-0.0293,-0.006,0.0081,0.0262,0.0286,0.0331,0.0311,0.0272,0.0288,0.0279,0.0272,0.0353,0.0353,0.0353,0.0353,0,-0.0587,-0.0615,-0.0652,-0.0734,-0.0773,-0.0804,-0.0812,-0.08,-0.0725,-0.0675,-0.0534,-0.0397,-0.0236,-0.0055,0.0084,0.0216,0.029,0.0332,0.0333,0.0314,0.0274,0.0287,0.0279,0.0354,0.0354,0.0354,0.0354,0,-0.0617,-0.066,-0.0721,-0.0785,-0.0846,-0.0879,-0.0873,-0.0823,-0.0786,-0.0646,-0.0592,-0.04,-0.0272,-0.0076,0.0059,0.0177,0.0202,0.0219,0.0226,0.0227,0.0162,0.009,0.0138,0,0,0,0,0,-0.0638,-0.0691,-0.0764,-0.0837,-0.0898,-0.0924,-0.092,-0.0892,-0.0808,-0.0718,-0.0649,-0.0488,-0.0254,-0.0136,-0.0021,0.0034,0.0196,0.0167,0.0211,0.0355,0.0355,0.0297,0,0,0,0,0,0,-0.0656,-0.0731,-0.077,-0.0865,-0.0915,-0.0971,-0.0967,-0.0911,-0.084,-0.0734,-0.0601,-0.0489,-0.0259,-0.0323,-0.0027,0.0014,0.0049,0.0294,0.0296,0.0355,0.0355,0.0355,0.0296,0,0,0,0,0]}]]